Back to catalog

THORAD DELTA 1 DEB

AliveSSO
NORAD 8786·DEBRIS·🇺🇸 United States

Launched Nov 15, 1974 from Vandenberg Space Force Base

Loading…

Next Passes (next 24 hours)

TLE

FreshSource: Space-Track

Epoch: Sep 13, 2026, 01:11 UTC

1 08786U 74089DN  26256.04982047  .00000021  00000-0  46240-3 0  9994
2 08786 101.9421 355.2761 0054170 193.7426 341.7355 12.44443473351145

Track THORAD DELTA 1 DEB in real time with AllMySat

Download on the App Store